{"data":{"norad_id":62613,"epoch":"2026-05-25T04:29:29.099040Z","epoch_age_seconds":48926,"freshness":"FRESH","line1":"1 62613U 25009E   26145.18714235  .00010593  00000+0  37588-3 0  9994","line2":"2 62613  97.4005 227.2967 0004972  56.1308 304.0405 15.29232068 75405","mean_motion":15.29232068,"eccentricity":0.0004972,"inclination_deg":97.4005,"raan_deg":227.2967,"arg_perigee_deg":56.1308,"mean_anomaly_deg":304.0405,"bstar":0.00037588,"rev_number":7540,"period_min":94.164909965778,"perigee_km":474.69773984234,"apogee_km":481.51558854202,"semimajor_km":6856.2436641922,"source":"CELESTRAK","updated_at":"2026-05-25T13:38:13.335612Z"}}